START_TIME,STEP,MOV.,M29,t_acc.,H22,t_acc.,H26,t_acc.,H30,t_acc.
1981-08-28 18:00:32.590 ,1,1,0.,24.0,0.,24.0,0.,24.0,0.,24.0
1981-08-28 18:00:56.590 ,2,1,0.,24.0,0.,24.0,0.,24.0,0.,24.0
1981-08-28 18:01:20.590 ,3,1,0.,24.0,0.,24.0,0.,24.0,0.,24.0
1981-08-28 18:01:44.590 ,4,1,0.,24.0,0.,24.0,0.,24.0,0.,24.0
1981-08-28 18:02:08.590 ,5,1,0.,24.0,0.,24.0,0.,24.0,0.,24.0
1981-08-28 18:02:32.590 ,6,1,0.,24.0,0.,24.0,0.,24.0,0.,24.0
1981-08-28 18:02:56.590 ,7,1,0.,24.0,0.,24.0,0.,24.0,0.,24.0
1981-08-28 18:03:20.590 ,7,1,0.,24.0,0.,24.0,0.,24.0,0.,24.0
1981-08-28 18:03:44.590 ,7,0,0.,24.0,0.,24.0,0.,24.0,0.,24.0
1981-08-28 18:04:08.590 ,6,1,0.,24.0,0.,24.0,0.,24.0,0.,24.0
1981-08-28 18:04:32.590 ,6,0,0.,24.0,0.,24.0,0.,24.0,0.,24.0
1981-08-28 18:04:56.590 ,5,1,0.,24.0,0.,24.0,0.,24.0,0.,24.0
1981-08-28 18:05:20.590 ,5,0,0.,24.0,0.,24.0,0.,24.0,0.,24.0
1981-08-28 18:05:44.590 ,4,1,0.,24.0,0.,24.0,0.,24.0,0.,24.0
1981-08-28 18:06:08.590 ,4,0,0.,24.0,0.,24.0,0.,24.0,0.,24.0
1981-08-28 18:06:32.590 ,3,1,0.,24.0,0.,24.0,0.,24.0,0.,24.0
1981-08-28 18:06:56.590 ,3,0,0.,24.0,0.,24.0,0.,24.0,0.,24.0
1981-08-28 18:07:20.590 ,2,1,0.,24.0,0.,24.0,0.,24.0,0.,24.0
1981-08-28 18:07:44.590 ,2,0,0.,24.0,0.,24.0,0.,24.0,0.,24.0
1981-08-28 18:08:08.590 ,1,1,0.,24.0,0.,24.0,0.,24.0,0.,24.0
1981-08-28 18:08:32.590 ,1,0,0.,24.0,0.,24.0,0.,24.0,0.,24.0
1981-08-28 18:08:56.590 ,0,1,0.,24.0,0.,24.0,0.,24.0,0.,24.0
1981-08-28 18:09:20.590 ,0,0,0.,24.0,0.,24.0,0.,24.0,0.,24.0
1981-08-28 18:09:44.590 ,0,1,0.,24.0,0.,24.0,0.,24.0,0.,24.0
1981-08-28 18:10:08.590 ,0,0,0.,24.0,0.,24.0,0.,24.0,0.,24.0
1981-08-28 18:10:32.590 ,1,1,0.,24.0,0.,24.0,0.,24.0,0.,24.0
1981-08-28 18:10:56.590 ,1,0,0.,24.0,0.,24.0,0.,24.0,0.,24.0
1981-08-28 18:11:20.590 ,2,1,0.,24.0,0.,24.0,0.,24.0,0.,24.0
1981-08-28 18:11:44.590 ,2,0,0.,24.0,0.,24.0,0.,24.0,0.,24.0
1981-08-28 18:12:08.590 ,3,1,0.,24.0,0.,24.0,0.,24.0,0.,24.0
1981-08-28 18:12:32.590 ,3,0,0.,24.0,0.,24.0,0.,24.0,0.,24.0
1981-08-28 18:12:56.590 ,4,1,0.,24.0,0.,24.0,0.,24.0,0.,24.0
1981-08-28 18:13:20.590 ,4,0,0.,24.0,0.,24.0,0.,24.0,0.,24.0
1981-08-28 18:13:44.590 ,5,1,0.,24.0,0.,24.0,0.,24.0,0.,24.0
1981-08-28 18:14:08.590 ,5,0,0.,24.0,0.,24.0,0.,24.0,0.,24.0
1981-08-28 18:14:32.590 ,6,1,0.,24.0,0.,24.0,0.,24.0,0.,24.0
1981-08-28 18:14:56.590 ,6,0,0.,24.0,0.,24.0,0.,24.0,0.,24.0
1981-08-28 18:15:20.590 ,7,1,0.,24.0,0.,24.0,0.,24.0,0.,24.0
1981-08-28 18:15:44.590 ,7,0,0.,24.0,0.,24.0,0.,24.0,0.,24.0
1981-08-28 18:16:08.590 ,7,1,1.,24.0,0.,24.0,0.,24.0,0.,24.0
1981-08-28 18:16:32.590 ,6,1,0.,24.0,0.,24.0,0.,24.0,0.,24.0
1981-08-28 18:16:56.590 ,5,1,0.,24.0,0.,24.0,0.,24.0,0.,24.0
1981-08-28 18:17:20.590 ,4,1,0.,24.0,0.,24.0,0.,24.0,0.,24.0
1981-08-28 18:17:44.590 ,3,1,0.,24.0,0.,24.0,0.,24.0,0.,24.0
1981-08-28 18:18:08.590 ,2,1,0.,24.0,0.,24.0,0.,24.0,0.,24.0
1981-08-28 18:18:32.590 ,1,1,0.,24.0,0.,24.0,0.,24.0,0.,24.0
1981-08-28 18:18:56.590 ,0,1,0.,24.0,0.,24.0,0.,24.0,0.,24.0
1981-08-28 18:19:20.590 ,0,1,0.,24.0,0.,24.0,0.,24.0,0.,24.0
1981-08-28 18:19:44.590 ,1,1,1.,24.0,0.,24.0,0.,24.0,0.,24.0
1981-08-28 18:20:08.590 ,2,1,0.,24.0,0.,24.0,0.,24.0,0.,24.0
1981-08-28 18:20:32.590 ,3,1,0.,24.0,0.,24.0,0.,24.0,0.,24.0
1981-08-28 18:20:56.590 ,4,1,0.,24.0,0.,24.0,0.,24.0,0.,24.0
1981-08-28 18:21:20.590 ,5,1,0.,24.0,0.,24.0,0.,24.0,0.,24.0
1981-08-28 18:21:44.590 ,6,1,0.,24.0,0.,24.0,0.,24.0,0.,24.0
1981-08-28 18:22:08.590 ,7,1,0.,24.0,0.,24.0,0.,24.0,0.,24.0
1981-08-28 18:22:32.590 ,7,1,0.,24.0,0.,24.0,0.,24.0,0.,24.0
1981-08-28 18:22:56.590 ,7,0,0.,24.0,0.,24.0,0.,24.0,0.,24.0
1981-08-28 18:23:20.590 ,6,1,0.,24.0,0.,24.0,0.,24.0,0.,24.0
1981-08-28 18:23:44.590 ,6,0,0.,24.0,0.,24.0,0.,24.0,0.,24.0
1981-08-28 18:24:08.590 ,5,1,0.,24.0,0.,24.0,0.,24.0,0.,24.0
1981-08-28 18:24:32.590 ,5,0,0.,24.0,0.,24.0,0.,24.0,0.,24.0
1981-08-28 18:24:56.590 ,4,1,0.,24.0,0.,24.0,0.,24.0,0.,24.0
1981-08-28 18:25:20.590 ,4,0,0.,24.0,0.,24.0,0.,24.0,0.,24.0
1981-08-28 18:25:44.590 ,3,1,0.,24.0,0.,24.0,0.,24.0,0.,24.0
1981-08-28 18:26:08.590 ,3,0,0.,24.0,0.,24.0,0.,24.0,0.,24.0
1981-08-28 18:26:32.590 ,2,1,1.,24.0,0.,24.0,0.,24.0,0.,24.0
1981-08-28 18:26:56.590 ,2,0,0.,24.0,0.,24.0,0.,24.0,0.,24.0
1981-08-28 18:27:20.590 ,1,1,0.,24.0,0.,24.0,0.,24.0,0.,24.0
1981-08-28 18:27:44.590 ,1,0,0.,24.0,0.,24.0,0.,24.0,0.,24.0
1981-08-28 18:28:08.590 ,0,1,0.,24.0,0.,24.0,0.,24.0,0.,24.0
1981-08-28 18:28:32.590 ,0,0,0.,24.0,0.,24.0,0.,24.0,0.,24.0
1981-08-28 18:28:56.590 ,0,1,0.,24.0,0.,24.0,0.,24.0,0.,24.0
1981-08-28 18:29:20.590 ,0,0,0.,24.0,0.,24.0,0.,24.0,0.,24.0
1981-08-28 18:29:44.590 ,1,1,1.,24.0,0.,24.0,0.,24.0,0.,24.0
1981-08-28 18:30:08.590 ,1,0,0.,24.0,0.,24.0,0.,24.0,0.,24.0
1981-08-28 18:30:32.590 ,2,1,0.,24.0,0.,24.0,0.,24.0,0.,24.0
1981-08-28 18:30:56.590 ,2,0,0.,24.0,0.,24.0,0.,24.0,0.,24.0
1981-08-28 18:31:20.590 ,3,1,0.,24.0,0.,24.0,0.,24.0,0.,24.0
1981-08-28 18:31:44.590 ,3,0,0.,24.0,0.,24.0,0.,24.0,0.,24.0
1981-08-28 18:32:08.590 ,4,1,0.,24.0,0.,24.0,0.,24.0,0.,24.0
1981-08-28 18:32:32.590 ,4,0,0.,24.0,0.,24.0,0.,24.0,0.,24.0
1981-08-28 18:32:56.590 ,5,1,0.,24.0,0.,24.0,0.,24.0,0.,24.0
1981-08-28 18:33:20.590 ,5,0,0.,24.0,0.,24.0,0.,24.0,0.,24.0
1981-08-28 18:33:44.590 ,6,1,0.,24.0,0.,24.0,0.,24.0,0.,24.0
1981-08-28 18:34:08.580 ,6,0,0.,24.0,0.,24.0,0.,24.0,0.,24.0
1981-08-28 18:34:32.580 ,7,1,0.,24.0,0.,24.0,0.,24.0,0.,24.0
1981-08-28 18:34:56.580 ,7,0,0.,24.0,0.,24.0,0.,24.0,0.,24.0
1981-08-28 18:35:20.580 ,7,1,0.,24.0,0.,24.0,0.,24.0,0.,24.0
1981-08-28 18:35:44.580 ,6,1,0.,24.0,0.,24.0,0.,24.0,0.,24.0
1981-08-28 18:36:08.580 ,5,1,0.,24.0,0.,24.0,0.,24.0,0.,24.0
1981-08-28 18:36:32.580 ,4,1,0.,24.0,0.,24.0,0.,24.0,0.,24.0
1981-08-28 18:36:56.580 ,3,1,0.,24.0,0.,24.0,0.,24.0,0.,24.0
1981-08-28 18:37:20.580 ,2,1,0.,24.0,0.,24.0,0.,24.0,0.,24.0
1981-08-28 18:37:44.580 ,1,1,0.,24.0,0.,24.0,0.,24.0,0.,24.0
1981-08-28 18:38:08.580 ,0,1,0.,24.0,0.,24.0,0.,24.0,0.,24.0
1981-08-28 18:38:32.580 ,0,1,0.,24.0,0.,24.0,0.,24.0,0.,24.0
1981-08-28 18:38:56.580 ,1,1,0.,24.0,0.,24.0,0.,24.0,0.,24.0
1981-08-28 18:39:20.580 ,2,1,0.,24.0,0.,24.0,0.,24.0,0.,24.0
1981-08-28 18:39:44.580 ,3,1,1.,24.0,0.,24.0,0.,24.0,0.,24.0
1981-08-28 18:40:08.580 ,4,1,0.,24.0,0.,24.0,0.,24.0,0.,24.0
1981-08-28 18:40:32.580 ,5,1,0.,24.0,0.,24.0,0.,24.0,0.,24.0
1981-08-28 18:40:56.580 ,6,1,0.,24.0,0.,24.0,0.,24.0,0.,24.0
1981-08-28 18:41:20.580 ,7,1,0.,24.0,0.,24.0,0.,24.0,0.,24.0
1981-08-28 18:41:44.580 ,7,1,0.,24.0,0.,24.0,0.,24.0,0.,24.0
1981-08-28 18:42:08.580 ,7,0,0.,24.0,0.,24.0,0.,24.0,0.,24.0
1981-08-28 18:42:32.580 ,6,1,0.,24.0,0.,24.0,0.,24.0,0.,24.0
1981-08-28 18:42:56.580 ,6,0,0.,24.0,0.,24.0,0.,24.0,0.,24.0
1981-08-28 18:43:20.580 ,5,1,0.,24.0,0.,24.0,0.,24.0,0.,24.0
1981-08-28 18:43:44.580 ,5,0,0.,24.0,0.,24.0,0.,24.0,0.,24.0
1981-08-28 18:44:08.580 ,4,1,0.,24.0,0.,24.0,0.,24.0,0.,24.0
1981-08-28 18:44:32.580 ,4,0,0.,24.0,0.,24.0,0.,24.0,0.,24.0
1981-08-28 18:44:56.580 ,3,1,0.,24.0,0.,24.0,0.,24.0,0.,24.0
1981-08-28 18:45:20.580 ,3,0,0.,24.0,0.,24.0,0.,24.0,0.,24.0
1981-08-28 18:45:44.580 ,2,1,0.,24.0,0.,24.0,0.,24.0,0.,24.0
1981-08-28 18:46:08.580 ,2,0,0.,24.0,0.,24.0,0.,24.0,0.,24.0
1981-08-28 18:46:32.580 ,1,1,0.,24.0,0.,24.0,0.,24.0,0.,24.0
1981-08-28 18:46:56.580 ,1,0,0.,24.0,0.,24.0,0.,24.0,0.,24.0
1981-08-28 18:47:20.580 ,0,1,1.,24.0,0.,24.0,0.,24.0,0.,24.0
1981-08-28 18:47:44.580 ,0,0,0.,24.0,0.,24.0,0.,24.0,0.,24.0
1981-08-28 18:48:08.580 ,0,1,0.,24.0,0.,24.0,0.,24.0,0.,24.0
1981-08-28 18:48:32.580 ,0,0,1.,24.0,0.,24.0,0.,24.0,0.,24.0
1981-08-28 18:48:56.580 ,1,1,0.,24.0,0.,24.0,0.,24.0,0.,24.0
1981-08-28 18:49:20.580 ,1,0,0.,24.0,0.,24.0,0.,24.0,0.,24.0
1981-08-28 18:49:44.580 ,2,1,0.,24.0,0.,24.0,0.,24.0,0.,24.0
1981-08-28 18:50:08.580 ,2,0,0.,24.0,0.,24.0,0.,24.0,0.,24.0
1981-08-28 18:50:32.580 ,3,1,0.,24.0,0.,24.0,0.,24.0,0.,24.0
1981-08-28 18:50:56.580 ,3,0,0.,24.0,0.,24.0,0.,24.0,0.,24.0
1981-08-28 18:51:20.580 ,4,1,0.,24.0,0.,24.0,0.,24.0,0.,24.0
1981-08-28 18:51:44.580 ,4,0,0.,24.0,0.,24.0,0.,24.0,0.,24.0
1981-08-28 18:52:08.580 ,5,1,0.,24.0,0.,24.0,0.,24.0,0.,24.0
1981-08-28 18:52:32.580 ,5,0,0.,24.0,0.,24.0,0.,24.0,0.,24.0
1981-08-28 18:52:56.580 ,6,1,0.,24.0,0.,24.0,0.,24.0,0.,24.0
1981-08-28 18:53:20.580 ,6,0,0.,24.0,0.,24.0,0.,24.0,0.,24.0
1981-08-28 18:53:44.580 ,7,1,0.,24.0,0.,24.0,0.,24.0,0.,24.0
1981-08-28 18:54:08.580 ,7,0,0.,24.0,0.,24.0,0.,24.0,0.,24.0
1981-08-28 18:54:32.580 ,7,1,0.,24.0,0.,24.0,0.,24.0,0.,24.0
1981-08-28 18:54:56.580 ,6,1,0.,24.0,0.,24.0,0.,24.0,0.,24.0
1981-08-28 18:55:20.580 ,5,1,0.,24.0,0.,24.0,0.,24.0,0.,24.0
1981-08-28 18:55:44.580 ,4,1,0.,24.0,0.,24.0,0.,24.0,0.,24.0
1981-08-28 18:56:08.580 ,3,1,0.,24.0,0.,24.0,0.,24.0,0.,24.0
1981-08-28 18:56:32.580 ,2,1,0.,24.0,0.,24.0,0.,24.0,0.,24.0
1981-08-28 18:56:56.580 ,1,1,0.,24.0,0.,24.0,0.,24.0,0.,24.0
1981-08-28 18:57:20.580 ,0,1,0.,24.0,0.,24.0,0.,24.0,0.,24.0
1981-08-28 18:57:44.580 ,0,1,0.,24.0,0.,24.0,0.,24.0,0.,24.0
1981-08-28 18:58:08.580 ,1,1,0.,24.0,0.,24.0,0.,24.0,0.,24.0
1981-08-28 18:58:32.580 ,2,1,0.,24.0,0.,24.0,0.,24.0,0.,24.0
1981-08-28 18:58:56.580 ,3,1,0.,24.0,0.,24.0,0.,24.0,0.,24.0
1981-08-28 18:59:20.580 ,4,1,0.,24.0,0.,24.0,0.,24.0,0.,24.0
1981-08-28 18:59:44.580 ,5,1,0.,24.0,0.,24.0,0.,24.0,0.,24.0
1981-08-28 19:00:08.580 ,6,1,0.,24.0,0.,24.0,0.,24.0,0.,24.0
1981-08-28 19:00:32.580 ,7,1,0.,24.0,0.,24.0,0.,24.0,0.,24.0
1981-08-28 19:00:56.580 ,7,1,0.,24.0,0.,24.0,0.,24.0,0.,24.0
1981-08-28 19:01:20.580 ,7,0,0.,24.0,0.,24.0,0.,24.0,0.,24.0
1981-08-28 19:01:44.580 ,6,1,0.,24.0,0.,24.0,0.,24.0,0.,24.0
1981-08-28 19:02:08.580 ,6,0,0.,24.0,0.,24.0,0.,24.0,0.,24.0
1981-08-28 19:02:32.580 ,5,1,0.,24.0,0.,24.0,0.,24.0,0.,24.0
1981-08-28 19:02:56.580 ,5,0,0.,24.0,0.,24.0,0.,24.0,0.,24.0
1981-08-28 19:03:20.580 ,4,1,0.,24.0,0.,24.0,0.,24.0,0.,24.0
1981-08-28 19:03:44.580 ,4,0,0.,24.0,0.,24.0,0.,24.0,0.,24.0
1981-08-28 19:04:08.580 ,3,1,0.,24.0,0.,24.0,0.,24.0,0.,24.0
1981-08-28 19:04:32.580 ,3,0,0.,24.0,0.,24.0,0.,24.0,0.,24.0
1981-08-28 19:04:56.580 ,2,1,0.,24.0,0.,24.0,0.,24.0,0.,24.0
1981-08-28 19:05:20.580 ,2,0,0.,24.0,0.,24.0,0.,24.0,0.,24.0
1981-08-28 19:05:44.580 ,1,1,0.,24.0,0.,24.0,0.,24.0,0.,24.0
1981-08-28 19:06:08.580 ,1,0,0.,24.0,0.,24.0,0.,24.0,0.,24.0
1981-08-28 19:06:32.580 ,0,1,0.,24.0,0.,24.0,0.,24.0,0.,24.0
1981-08-28 19:06:56.580 ,0,0,0.,24.0,0.,24.0,0.,24.0,0.,24.0
1981-08-28 19:07:20.580 ,0,1,0.,24.0,0.,24.0,0.,24.0,0.,24.0
1981-08-28 19:07:44.580 ,0,0,0.,24.0,0.,24.0,0.,24.0,0.,24.0
1981-08-28 19:08:08.580 ,1,1,0.,24.0,0.,24.0,0.,24.0,0.,24.0
1981-08-28 19:08:32.580 ,1,0,0.,24.0,0.,24.0,0.,24.0,0.,24.0
1981-08-28 19:08:56.580 ,2,1,0.,24.0,0.,24.0,0.,24.0,0.,24.0
1981-08-28 19:09:20.580 ,2,0,0.,24.0,0.,24.0,0.,24.0,0.,24.0
1981-08-28 19:09:44.580 ,3,1,0.,24.0,0.,24.0,0.,24.0,0.,24.0
1981-08-28 19:10:08.580 ,3,0,0.,24.0,0.,24.0,0.,24.0,0.,24.0
1981-08-28 19:10:32.580 ,4,1,0.,24.0,0.,24.0,0.,24.0,0.,24.0
1981-08-28 19:10:56.580 ,4,0,0.,24.0,0.,24.0,0.,24.0,0.,24.0
1981-08-28 19:11:20.580 ,5,1,0.,24.0,0.,24.0,0.,24.0,0.,24.0
1981-08-28 19:11:44.580 ,5,0,0.,24.0,0.,24.0,0.,24.0,0.,24.0
1981-08-28 19:12:08.580 ,6,1,0.,24.0,0.,24.0,0.,24.0,0.,24.0
1981-08-28 19:12:32.580 ,6,0,0.,24.0,0.,24.0,0.,24.0,0.,24.0
1981-08-28 19:12:56.580 ,7,1,0.,24.0,0.,24.0,0.,24.0,0.,24.0
1981-08-28 19:13:20.580 ,7,0,0.,24.0,0.,24.0,0.,24.0,0.,24.0
1981-08-28 19:13:44.580 ,7,1,0.,24.0,0.,24.0,0.,24.0,0.,24.0
1981-08-28 19:14:08.580 ,6,1,0.,24.0,0.,24.0,0.,24.0,0.,24.0
1981-08-28 19:14:32.580 ,5,1,0.,24.0,0.,24.0,0.,24.0,0.,24.0
1981-08-28 19:14:56.580 ,4,1,0.,24.0,0.,24.0,0.,24.0,0.,24.0
1981-08-28 19:15:20.580 ,3,1,0.,24.0,0.,24.0,0.,24.0,0.,24.0
1981-08-28 19:15:44.580 ,2,1,0.,24.0,0.,24.0,0.,24.0,0.,24.0
1981-08-28 19:16:08.580 ,1,1,0.,24.0,0.,24.0,0.,24.0,0.,24.0
1981-08-28 19:16:32.580 ,0,1,0.,24.0,0.,24.0,0.,24.0,0.,24.0
1981-08-28 19:16:56.580 ,0,1,0.,24.0,0.,24.0,0.,24.0,0.,24.0
1981-08-28 19:17:20.580 ,1,1,0.,24.0,0.,24.0,0.,24.0,0.,24.0
1981-08-28 19:17:44.580 ,2,1,0.,24.0,0.,24.0,0.,24.0,0.,24.0
1981-08-28 19:18:08.580 ,3,1,0.,24.0,0.,24.0,0.,24.0,0.,24.0
1981-08-28 19:18:32.580 ,4,1,0.,24.0,0.,24.0,0.,24.0,0.,24.0
1981-08-28 19:18:56.580 ,5,1,0.,24.0,0.,24.0,0.,24.0,0.,24.0
1981-08-28 19:19:20.580 ,6,1,0.,24.0,0.,24.0,0.,24.0,0.,24.0
1981-08-28 19:19:44.580 ,7,1,0.,24.0,0.,24.0,0.,24.0,0.,24.0
1981-08-28 19:20:08.580 ,7,1,0.,24.0,0.,24.0,0.,24.0,0.,24.0
1981-08-28 19:20:32.580 ,7,0,0.,24.0,0.,24.0,0.,24.0,0.,24.0
1981-08-28 19:20:56.580 ,6,1,0.,24.0,0.,24.0,0.,24.0,0.,24.0
1981-08-28 19:21:20.580 ,6,0,0.,24.0,0.,24.0,0.,24.0,0.,24.0
1981-08-28 19:21:44.580 ,5,1,0.,24.0,0.,24.0,0.,24.0,0.,24.0
1981-08-28 19:22:08.580 ,5,0,0.,24.0,0.,24.0,0.,24.0,0.,24.0
1981-08-28 19:22:32.580 ,4,1,0.,24.0,0.,24.0,0.,24.0,0.,24.0
1981-08-28 19:22:56.580 ,4,0,0.,24.0,0.,24.0,0.,24.0,0.,24.0
1981-08-28 19:23:20.580 ,3,1,1.,24.0,0.,24.0,0.,24.0,0.,24.0
1981-08-28 19:23:44.580 ,3,0,0.,24.0,0.,24.0,0.,24.0,0.,24.0
1981-08-28 19:24:08.580 ,2,1,0.,24.0,0.,24.0,0.,24.0,0.,24.0
1981-08-28 19:24:32.580 ,2,0,0.,24.0,0.,24.0,0.,24.0,0.,24.0
1981-08-28 19:24:56.580 ,1,1,0.,24.0,0.,24.0,0.,24.0,0.,24.0
1981-08-28 19:25:20.580 ,1,0,0.,24.0,0.,24.0,0.,24.0,0.,24.0
1981-08-28 19:25:44.580 ,0,1,0.,24.0,0.,24.0,0.,24.0,0.,24.0
1981-08-28 19:26:08.580 ,0,0,0.,24.0,0.,24.0,0.,24.0,0.,24.0
1981-08-28 19:26:32.580 ,0,1,0.,24.0,0.,24.0,0.,24.0,0.,24.0
1981-08-28 19:26:56.580 ,0,0,0.,24.0,0.,24.0,0.,24.0,0.,24.0
1981-08-28 19:27:20.580 ,1,1,0.,24.0,0.,24.0,0.,24.0,0.,24.0
1981-08-28 19:27:44.580 ,1,0,0.,24.0,0.,24.0,0.,24.0,0.,24.0
1981-08-28 19:28:08.580 ,2,1,0.,24.0,0.,24.0,0.,24.0,0.,24.0
1981-08-28 19:28:32.580 ,2,0,0.,24.0,0.,24.0,0.,24.0,0.,24.0
1981-08-28 19:28:56.580 ,3,1,0.,24.0,0.,24.0,0.,24.0,0.,24.0
1981-08-28 19:29:20.580 ,3,0,0.,24.0,0.,24.0,0.,24.0,0.,24.0
1981-08-28 19:29:44.580 ,4,1,0.,24.0,0.,24.0,0.,24.0,0.,24.0
1981-08-28 19:30:08.580 ,4,0,0.,24.0,0.,24.0,0.,24.0,0.,24.0
1981-08-28 19:30:32.580 ,5,1,0.,24.0,0.,24.0,0.,24.0,0.,24.0
1981-08-28 19:30:56.580 ,5,0,0.,24.0,0.,24.0,0.,24.0,0.,24.0
1981-08-28 19:31:20.580 ,6,1,0.,24.0,0.,24.0,0.,24.0,0.,24.0
1981-08-28 19:31:44.580 ,6,0,0.,24.0,0.,24.0,0.,24.0,0.,24.0
1981-08-28 19:32:08.580 ,7,1,0.,24.0,0.,24.0,0.,24.0,0.,24.0
1981-08-28 19:32:32.580 ,7,0,0.,24.0,0.,24.0,0.,24.0,0.,24.0
1981-08-28 19:32:56.580 ,7,1,0.,24.0,0.,24.0,0.,24.0,0.,24.0
1981-08-28 19:33:20.580 ,6,1,0.,24.0,0.,24.0,0.,24.0,0.,24.0
1981-08-28 19:33:44.580 ,5,1,0.,24.0,0.,24.0,0.,24.0,0.,24.0
1981-08-28 19:34:08.580 ,4,1,0.,24.0,0.,24.0,0.,24.0,0.,24.0
1981-08-28 19:34:32.580 ,3,1,0.,24.0,0.,24.0,0.,24.0,0.,24.0
1981-08-28 19:34:56.580 ,2,1,1.,24.0,0.,24.0,0.,24.0,0.,24.0
1981-08-28 19:35:20.580 ,1,1,0.,24.0,0.,24.0,0.,24.0,0.,24.0
1981-08-28 19:35:44.580 ,0,1,0.,24.0,0.,24.0,0.,24.0,0.,24.0
1981-08-28 19:36:08.580 ,0,1,0.,24.0,0.,24.0,0.,24.0,0.,24.0
1981-08-28 19:36:32.580 ,0,0,0.,24.0,0.,24.0,0.,24.0,0.,24.0
1981-08-28 19:40:26.580 ,0,0,,0,,0,,0,,0
1981-08-28 19:40:32.580 ,0,0,,0,,0,,0,,0
1981-08-28 19:40:56.580 ,5,1,0.,24.0,0.,24.0,0.,24.0,0.,24.0
1981-08-28 19:41:20.580 ,5,0,0.,24.0,0.,24.0,0.,24.0,0.,24.0
1981-08-28 19:41:44.580 ,4,1,0.,24.0,0.,24.0,0.,24.0,0.,24.0
1981-08-28 19:42:08.580 ,4,0,0.,24.0,0.,24.0,0.,24.0,0.,24.0
1981-08-28 19:42:32.580 ,3,1,0.,24.0,0.,24.0,0.,24.0,0.,24.0
1981-08-28 19:42:56.580 ,3,0,0.,24.0,0.,24.0,0.,24.0,0.,24.0
1981-08-28 19:43:20.580 ,2,1,0.,24.0,0.,24.0,0.,24.0,0.,24.0
1981-08-28 19:43:44.580 ,2,0,0.,24.0,0.,24.0,0.,24.0,0.,24.0
1981-08-28 19:44:08.580 ,1,1,0.,24.0,0.,24.0,0.,24.0,0.,24.0
1981-08-28 19:44:32.580 ,1,0,0.,24.0,0.,24.0,0.,24.0,0.,24.0
1981-08-28 19:44:56.580 ,0,1,0.,24.0,0.,24.0,0.,24.0,0.,24.0
1981-08-28 19:45:20.580 ,0,0,0.,24.0,0.,24.0,0.,24.0,0.,24.0
1981-08-28 19:45:44.580 ,0,1,0.,24.0,0.,24.0,0.,24.0,0.,24.0
1981-08-28 19:46:08.580 ,0,0,0.,24.0,0.,24.0,0.,24.0,0.,24.0
1981-08-28 19:46:32.580 ,1,1,0.,24.0,0.,24.0,0.,24.0,0.,24.0
1981-08-28 19:46:56.580 ,1,0,0.,24.0,0.,24.0,0.,24.0,0.,24.0
1981-08-28 19:47:20.580 ,2,1,0.,24.0,0.,24.0,0.,24.0,0.,24.0
1981-08-28 19:47:44.580 ,2,0,0.,24.0,0.,24.0,0.,24.0,0.,24.0
1981-08-28 19:48:08.580 ,3,1,0.,24.0,0.,24.0,0.,24.0,0.,24.0
1981-08-28 19:48:32.580 ,3,0,0.,24.0,0.,24.0,0.,24.0,0.,24.0
1981-08-28 19:48:56.580 ,4,1,0.,24.0,0.,24.0,0.,24.0,0.,24.0
1981-08-28 19:49:20.580 ,4,0,0.,24.0,0.,24.0,0.,24.0,0.,24.0
1981-08-28 19:49:44.580 ,5,1,0.,24.0,0.,24.0,0.,24.0,0.,24.0
1981-08-28 19:50:08.580 ,5,0,0.,24.0,0.,24.0,0.,24.0,0.,24.0
1981-08-28 19:50:32.580 ,6,1,0.,24.0,0.,24.0,0.,24.0,0.,24.0
1981-08-28 19:50:56.580 ,6,0,0.,24.0,0.,24.0,0.,24.0,0.,24.0
1981-08-28 19:51:20.580 ,7,1,0.,24.0,0.,24.0,0.,24.0,0.,24.0
1981-08-28 19:51:44.580 ,7,0,0.,24.0,0.,24.0,0.,24.0,0.,24.0
1981-08-28 19:52:08.580 ,7,1,0.,24.0,0.,24.0,0.,24.0,0.,24.0
1981-08-28 19:52:32.580 ,6,1,0.,24.0,0.,24.0,0.,24.0,0.,24.0
1981-08-28 19:52:56.580 ,5,1,0.,24.0,0.,24.0,0.,24.0,0.,24.0
1981-08-28 19:53:20.580 ,4,1,0.,24.0,0.,24.0,0.,24.0,0.,24.0
1981-08-28 19:53:44.580 ,3,1,0.,24.0,0.,24.0,0.,24.0,0.,24.0
1981-08-28 19:54:08.580 ,2,1,0.,24.0,0.,24.0,0.,24.0,0.,24.0
1981-08-28 19:54:32.580 ,0,0,0.,24.0,0.,24.0,0.,24.0,0.,24.0
1981-08-28 19:54:56.580 ,0,0,,0,,0,,0,,0
1981-08-28 19:55:20.580 ,0,0,0.,24.0,0.,24.0,0.,24.0,0.,24.0
1981-08-28 19:55:44.580 ,1,1,0.,24.0,0.,24.0,0.,24.0,0.,24.0
1981-08-28 19:56:08.580 ,2,1,0.,24.0,0.,24.0,0.,24.0,0.,24.0
1981-08-28 19:56:32.580 ,3,1,0.,24.0,0.,24.0,0.,24.0,0.,24.0
1981-08-28 19:56:56.580 ,4,1,0.,24.0,0.,24.0,0.,24.0,0.,24.0
1981-08-28 19:57:20.580 ,5,1,0.,24.0,0.,24.0,0.,24.0,0.,24.0
1981-08-28 19:58:32.580 ,0,0,0.,24.0,0.,24.0,0.,24.0,0.,24.0
1981-08-28 19:58:56.580 ,0,0,0.,24.0,0.,24.0,0.,24.0,0.,24.0
1981-08-28 19:59:20.580 ,6,1,0.,24.0,0.,24.0,0.,24.0,0.,24.0
1981-08-28 19:59:44.580 ,6,0,0.,24.0,0.,24.0,0.,24.0,0.,24.0
1981-08-28 20:00:08.580 ,5,1,0.,24.0,0.,24.0,0.,24.0,0.,24.0
1981-08-28 20:00:32.580 ,5,0,0.,24.0,0.,24.0,0.,24.0,0.,24.0
1981-08-28 20:00:56.580 ,4,1,0.,24.0,0.,24.0,0.,24.0,0.,24.0
1981-08-28 20:01:20.580 ,4,0,0.,24.0,0.,24.0,0.,24.0,0.,24.0
1981-08-28 20:01:44.580 ,3,1,0.,24.0,0.,24.0,0.,24.0,0.,24.0
1981-08-28 20:02:08.580 ,3,0,0.,24.0,0.,24.0,0.,24.0,0.,24.0
1981-08-28 20:02:32.580 ,2,1,0.,24.0,0.,24.0,0.,24.0,0.,24.0
1981-08-28 20:02:56.580 ,2,0,0.,24.0,0.,24.0,0.,24.0,0.,24.0
1981-08-28 20:03:20.580 ,1,1,0.,24.0,0.,24.0,0.,24.0,0.,24.0
1981-08-28 20:03:44.580 ,1,0,0.,24.0,0.,24.0,0.,24.0,0.,24.0
1981-08-28 20:04:08.580 ,0,1,0.,24.0,0.,24.0,0.,24.0,0.,24.0
1981-08-28 20:04:32.580 ,0,0,0.,24.0,0.,24.0,0.,24.0,0.,24.0
1981-08-28 20:04:56.580 ,0,1,0.,24.0,0.,24.0,0.,24.0,0.,24.0
1981-08-28 20:05:20.580 ,0,0,0.,24.0,0.,24.0,0.,24.0,0.,24.0
1981-08-28 20:05:44.580 ,1,1,2.,24.0,0.,24.0,0.,24.0,0.,24.0
1981-08-28 20:06:08.580 ,1,0,0.,24.0,0.,24.0,0.,24.0,0.,24.0
1981-08-28 20:06:32.580 ,2,1,0.,24.0,0.,24.0,0.,24.0,0.,24.0
1981-08-28 20:06:56.580 ,2,0,0.,24.0,0.,24.0,0.,24.0,0.,24.0
1981-08-28 20:07:20.580 ,3,1,0.,24.0,0.,24.0,0.,24.0,0.,24.0
1981-08-28 20:07:44.580 ,3,0,0.,24.0,0.,24.0,0.,24.0,0.,24.0
1981-08-28 20:08:08.580 ,4,1,0.,24.0,0.,24.0,0.,24.0,0.,24.0
1981-08-28 20:08:32.580 ,4,0,0.,24.0,0.,24.0,0.,24.0,0.,24.0
1981-08-28 20:08:56.580 ,5,1,0.,24.0,0.,24.0,0.,24.0,0.,24.0
1981-08-28 20:09:20.580 ,5,0,0.,24.0,0.,24.0,0.,24.0,0.,24.0
1981-08-28 20:09:44.580 ,6,1,0.,24.0,0.,24.0,0.,24.0,0.,24.0
1981-08-28 20:10:08.580 ,6,0,0.,24.0,0.,24.0,0.,24.0,0.,24.0
1981-08-28 20:10:32.580 ,7,1,0.,24.0,0.,24.0,0.,24.0,0.,24.0
1981-08-28 20:10:56.580 ,7,0,0.,24.0,0.,24.0,0.,24.0,0.,24.0
1981-08-28 20:11:20.580 ,7,1,0.,24.0,0.,24.0,0.,24.0,0.,24.0
1981-08-28 20:11:44.580 ,6,1,0.,24.0,0.,24.0,0.,24.0,0.,24.0
1981-08-28 20:12:08.580 ,5,1,0.,24.0,0.,24.0,0.,24.0,0.,24.0
1981-08-28 20:12:32.580 ,4,1,0.,24.0,0.,24.0,0.,24.0,0.,24.0
1981-08-28 20:12:56.580 ,3,1,0.,24.0,0.,24.0,0.,24.0,0.,24.0
1981-08-28 20:13:20.580 ,2,1,0.,24.0,0.,24.0,0.,24.0,0.,24.0
1981-08-28 20:13:44.580 ,1,1,0.,24.0,0.,24.0,0.,24.0,0.,24.0
1981-08-28 20:14:08.580 ,0,1,0.,24.0,0.,24.0,0.,24.0,0.,24.0
1981-08-28 20:14:32.580 ,0,1,0.,24.0,0.,24.0,0.,24.0,0.,24.0
1981-08-28 20:14:56.580 ,1,1,0.,24.0,0.,24.0,0.,24.0,0.,24.0
1981-08-28 20:15:20.580 ,2,1,0.,24.0,0.,24.0,0.,24.0,0.,24.0
1981-08-28 20:15:44.580 ,3,1,0.,24.0,0.,24.0,0.,24.0,0.,24.0
1981-08-28 20:16:08.580 ,4,1,0.,24.0,0.,24.0,0.,24.0,0.,24.0
1981-08-28 20:16:32.580 ,5,1,0.,24.0,0.,24.0,0.,24.0,0.,24.0
1981-08-28 20:16:56.580 ,6,1,0.,24.0,0.,24.0,0.,24.0,0.,24.0
1981-08-28 20:17:20.580 ,7,1,0.,24.0,0.,24.0,0.,24.0,0.,24.0
1981-08-28 20:17:44.580 ,7,1,0.,24.0,0.,24.0,0.,24.0,0.,24.0
1981-08-28 20:18:08.580 ,7,0,0.,24.0,0.,24.0,0.,24.0,0.,24.0
1981-08-28 20:18:32.580 ,6,1,0.,24.0,0.,24.0,0.,24.0,0.,24.0
1981-08-28 20:18:56.580 ,6,0,0.,24.0,0.,24.0,0.,24.0,0.,24.0
1981-08-28 20:19:20.580 ,5,1,0.,24.0,0.,24.0,0.,24.0,0.,24.0
1981-08-28 20:19:44.580 ,5,0,0.,24.0,0.,24.0,0.,24.0,0.,24.0
1981-08-28 20:20:08.580 ,4,1,0.,24.0,0.,24.0,0.,24.0,0.,24.0
1981-08-28 20:20:32.580 ,4,0,0.,24.0,0.,24.0,0.,24.0,0.,24.0
1981-08-28 20:20:56.580 ,3,1,0.,24.0,0.,24.0,0.,24.0,0.,24.0
1981-08-28 20:21:20.580 ,3,0,0.,24.0,0.,24.0,0.,24.0,0.,24.0
1981-08-28 20:21:44.580 ,2,1,0.,24.0,0.,24.0,0.,24.0,0.,24.0
1981-08-28 20:22:08.580 ,2,0,0.,24.0,0.,24.0,0.,24.0,0.,24.0
1981-08-28 20:22:32.580 ,1,1,0.,24.0,0.,24.0,0.,24.0,0.,24.0
1981-08-28 20:22:56.580 ,1,0,0.,24.0,0.,24.0,0.,24.0,0.,24.0
1981-08-28 20:23:20.580 ,0,1,0.,24.0,0.,24.0,0.,24.0,0.,24.0
1981-08-28 20:23:44.580 ,0,0,0.,24.0,0.,24.0,0.,24.0,0.,24.0
1981-08-28 20:24:08.580 ,0,1,0.,24.0,0.,24.0,0.,24.0,0.,24.0
1981-08-28 20:24:32.580 ,0,0,0.,24.0,0.,24.0,0.,24.0,0.,24.0
1981-08-28 20:24:56.580 ,1,1,0.,24.0,0.,24.0,0.,24.0,0.,24.0
1981-08-28 20:25:20.580 ,1,0,0.,24.0,0.,24.0,0.,24.0,0.,24.0
1981-08-28 20:25:44.580 ,2,1,0.,24.0,0.,24.0,0.,24.0,0.,24.0
1981-08-28 20:26:08.580 ,2,0,0.,24.0,0.,24.0,0.,24.0,0.,24.0
1981-08-28 20:26:32.580 ,3,1,0.,24.0,0.,24.0,0.,24.0,0.,24.0
1981-08-28 20:26:56.580 ,3,0,0.,24.0,0.,24.0,0.,24.0,0.,24.0
1981-08-28 20:27:20.580 ,4,1,0.,24.0,0.,24.0,0.,24.0,0.,24.0
1981-08-28 20:27:44.580 ,4,0,0.,24.0,0.,24.0,0.,24.0,0.,24.0
1981-08-28 20:28:08.580 ,5,1,0.,24.0,0.,24.0,0.,24.0,0.,24.0
1981-08-28 20:28:32.580 ,5,0,0.,24.0,0.,24.0,0.,24.0,0.,24.0
1981-08-28 20:28:56.580 ,6,1,0.,24.0,0.,24.0,0.,24.0,0.,24.0
1981-08-28 20:29:20.580 ,6,0,0.,24.0,0.,24.0,0.,24.0,0.,24.0
1981-08-28 20:29:44.580 ,7,1,0.,24.0,0.,24.0,0.,24.0,0.,24.0
1981-08-28 20:30:08.580 ,7,0,0.,24.0,0.,24.0,0.,24.0,0.,24.0
1981-08-28 20:30:32.580 ,7,1,0.,24.0,0.,24.0,0.,24.0,1.,24.0
1981-08-28 20:30:56.580 ,6,1,0.,24.0,0.,24.0,0.,24.0,0.,24.0
1981-08-28 20:31:20.580 ,5,1,0.,24.0,0.,24.0,0.,24.0,0.,24.0
1981-08-28 20:31:44.580 ,4,1,0.,24.0,0.,24.0,0.,24.0,0.,24.0
1981-08-28 20:32:08.580 ,3,1,0.,24.0,0.,24.0,0.,24.0,0.,24.0
1981-08-28 20:32:32.580 ,2,1,0.,24.0,0.,24.0,0.,24.0,0.,24.0
1981-08-28 20:32:56.580 ,1,1,0.,24.0,0.,24.0,0.,24.0,0.,24.0
1981-08-28 20:33:20.580 ,0,1,0.,24.0,0.,24.0,0.,24.0,0.,24.0
1981-08-28 20:33:44.580 ,0,1,0.,24.0,0.,24.0,0.,24.0,0.,24.0
1981-08-28 20:34:08.580 ,1,1,0.,24.0,0.,24.0,0.,24.0,0.,24.0
1981-08-28 20:34:32.580 ,2,1,0.,24.0,0.,24.0,0.,24.0,0.,24.0
1981-08-28 20:34:56.580 ,3,1,0.,24.0,0.,24.0,0.,24.0,0.,24.0
1981-08-28 20:35:20.580 ,4,1,0.,24.0,0.,24.0,0.,24.0,0.,24.0
1981-08-28 20:35:44.580 ,5,1,0.,24.0,0.,24.0,0.,24.0,0.,24.0
1981-08-28 20:36:08.580 ,6,1,0.,24.0,0.,24.0,0.,24.0,0.,24.0
1981-08-28 20:36:32.580 ,7,1,0.,24.0,0.,24.0,0.,24.0,0.,24.0
1981-08-28 20:36:56.580 ,7,1,0.,24.0,0.,24.0,0.,24.0,0.,24.0
1981-08-28 20:37:20.580 ,7,0,0.,24.0,0.,24.0,0.,24.0,0.,24.0
1981-08-28 20:37:44.580 ,6,1,0.,24.0,0.,24.0,0.,24.0,0.,24.0
1981-08-28 20:38:08.580 ,6,0,0.,24.0,0.,24.0,0.,24.0,0.,24.0
1981-08-28 20:38:32.580 ,5,1,0.,24.0,0.,24.0,0.,24.0,0.,24.0
1981-08-28 20:38:56.580 ,5,0,0.,24.0,0.,24.0,0.,24.0,0.,24.0